Weather History for Hot Springs, AR

Change the Weather History Date:

Monday, January 6, 2014

  Actual Average Record
Temperature  
Mean Temperature 18 °F -  
Max Temperature 23 °F 48 °F 73 °F (1956)
Min Temperature 10 °F 29 °F 10 °F (2014)
Degree Days  
Heating Degree Days 48    
Moisture  
Dew Point -3 °F    
Average Humidity 42    
Maximum Humidity 67    
Minimum Humidity 30    
Precipitation  
Precipitation 0.00 in - - ()
Sea Level Pressure  
Sea Level Pressure 30.60 in    
Wind  
Wind Speed 8 mph (NW)    
Max Wind Speed 15 mph    
Max Gust Speed 26 mph    
Visibility 10 miles    
Events      
Averages and records for this station are not official NWS values.
T = Trace of Precipitation, MM = Missing Value Source: NWS Daily Summary

Daily Weather History Graph

Daily Weather History Graph

Search for Another Location

Airport:

Trip Planner

Search our weather history database for the weather conditions in past years. The results will help you decide how hot, cold, wet, or windy it might be!

Date:

Astronomy

Jan. 06, 2014 Rise Set
Actual Time 7:19 AM CST 5:17 PM CST
Civil Twilight 6:51 AM CST 5:44 PM CST
Nautical Twilight 6:20 AM CST 6:16 PM CST
Astronomical Twilight 5:50 AM CST 6:46 PM CST
Moon 10:51 AM CST (1/6) 11:33 PM CST (1/6)
Length of Visible Light 10h 52m
Length of Day
9h 57m
Waxing Crescent, 35% of the Moon is Illuminated
Jan 6
Waxing Crescent
Jan 7
First Quarter
Jan 15
Full
Jan 23
Last Quarter
Jan 30
New

Hourly Weather History & Observations

Time (CST) Temp. Windchill Dew Point Humidity Pressure Visibility Wind Dir Wind Speed Gust Speed Precip Events Conditions
12:53 AM 18.0 °F 6.9 °F -0.0 °F 45% 30.48 in 10.0 mi North 9.2 mph 17.3 mph N/A   Clear
1:53 AM 17.1 °F 8.7 °F -0.9 °F 45% 30.50 in 10.0 mi NNW 5.8 mph - N/A   Clear
2:53 AM 16.0 °F 3.6 °F -4.0 °F 41% 30.53 in 10.0 mi NNW 10.4 mph - N/A   Clear
3:53 AM 15.1 °F 6.4 °F -4.0 °F 43% 30.55 in 10.0 mi North 5.8 mph - N/A   Clear
4:53 AM 14.0 °F 0.5 °F -2.0 °F 49% 30.56 in 10.0 mi NNW 11.5 mph 21.9 mph N/A   Clear
5:53 AM 12.9 °F 5.2 °F -4.0 °F 47% 30.57 in 10.0 mi Variable 4.6 mph - N/A   Clear
6:53 AM 12.9 °F 2.6 °F -4.0 °F 47% 30.59 in 10.0 mi Variable 6.9 mph - N/A   Clear
7:53 AM 12.9 °F 1.6 °F -4.0 °F 47% 30.61 in 10.0 mi NNW 8.1 mph - N/A   Clear
8:53 AM 14.0 °F 0.5 °F -6.0 °F 41% 30.65 in 10.0 mi NW 11.5 mph 25.3 mph N/A   Clear
9:53 AM 18.0 °F 6.9 °F -4.0 °F 38% 30.65 in 10.0 mi NW 9.2 mph - N/A   Clear
10:53 AM 19.0 °F 5.6 °F -2.9 °F 38% 30.67 in 10.0 mi WNW 13.8 mph 21.9 mph N/A   Clear
11:53 AM 19.9 °F 6.2 °F -4.0 °F 35% 30.64 in 10.0 mi NNW 15.0 mph 21.9 mph N/A   Clear
12:53 PM 21.0 °F 9.3 °F -4.0 °F 33% 30.61 in 10.0 mi WNW 11.5 mph 26.5 mph N/A   Clear
1:53 PM 21.9 °F 10.4 °F -2.9 °F 34% 30.60 in 10.0 mi West 11.5 mph 20.7 mph N/A   Clear
2:53 PM 21.9 °F 10.4 °F -5.1 °F 30% 30.60 in 10.0 mi WNW 11.5 mph 23.0 mph N/A   Clear
3:53 PM 23.0 °F 11.1 °F -4.0 °F 31% 30.60 in 10.0 mi NW 12.7 mph 18.4 mph N/A   Clear
4:53 PM 21.0 °F 12.4 °F -2.9 °F 35% 30.60 in 10.0 mi Variable 6.9 mph - N/A   Clear
5:53 PM 19.0 °F 11.1 °F -4.0 °F 36% 30.59 in 10.0 mi West 5.8 mph - N/A   Clear
6:53 PM 18.0 °F 12.7 °F -4.0 °F 38% 30.62 in 10.0 mi WNW 3.5 mph - N/A   Clear
7:53 PM 17.1 °F 10.0 °F -2.9 °F 41% 30.63 in 10.0 mi West 4.6 mph - N/A   Clear
8:53 PM 16.0 °F - -2.0 °F 45% 30.64 in 10.0 mi Calm Calm - N/A   Clear
9:53 PM 15.1 °F - -0.9 °F 49% 30.64 in 10.0 mi Calm Calm - N/A   Clear
10:53 PM 12.9 °F - -0.0 °F 56% 30.63 in 10.0 mi Calm Calm - N/A   Clear
11:53 PM 10.9 °F - 1.9 °F 67% 30.62 in 10.0 mi Calm Calm - N/A   Clear